Regional Weather Roundup
Issued by NWS

Home | Current Version | Previous Version | Graphics & Text | Print | Product List | Glossary Off
Versions: 1 2 3 4 5 6 7 8 9 10 11 12 13 14 15 16 17 18 19 20 21 22 23 24 25 26 27 28 29 30 31 32 33 34 35 36 37 38 39 40 41 42 43 44 45 46 47 48 49 50

000
ASUS43 KFSD 020510
RWRSD

WEATHER ROUNDUP FOR SOUTH DAKOTA
NATIONAL WEATHER SERVICE SIOUX FALLS SD
1200 AM CDT TUE JUN 02 2015

NOTE: "FAIR" INDICATES FEW OR NO CLOUDS BELOW 12,000 FEET WITH NO
SIGNIFICANT WEATHER AND/OR OBSTRUCTIONS TO VISIBILITY.


SDZ001>005-009-010-012>017-020600-
NORTHWEST AND NORTH CENTRAL SOUTH DAKOTA

CITY           SKY/WX    TMP DP  RH WIND       PRES   REMARKS
BUFFALO          N/A     70  60  70 SE5       29.71S
FAITH            N/A     68  52  56 S14       29.76F
MOBRIDGE       CLOUDY    70  62  76 SE16      29.78F
$$

SDZ012>016-024>037-041>051-057-063-072>074-020600-
SOUTHWEST AND SOUTH CENTRAL SOUTH DAKOTA

CITY           SKY/WX    TMP DP  RH WIND       PRES   REMARKS
RAPID CTY ARPT CLOUDY    66  53  63 SE5       29.86R
PIERRE         CLOUDY    70  61  73 SE12      29.83F
CUSTER         CLOUDY    65  44  46 S5        29.99F
ELLSWORTH AFB  CLOUDY    67  54  62 S10       29.84S
PHILIP         CLOUDY    72  54  53 CALM      29.84S
PINE RIDGE     CLOUDY    69  51  52 S18G29    29.87F
SPEARFISH      FAIR      68  46  45 S8        29.83S
WINNER         FAIR      69  58  67 S20G29    29.90S
$$

SDZ004>011-016>023-039-040-020600-
NORTHEAST SOUTH DAKOTA

CITY           SKY/WX    TMP DP  RH WIND       PRES   REMARKS
ABERDEEN       PTCLDY    67  55  65 S17       29.87F
WATERTOWN      CLEAR     65  49  56 S17       29.96F
BROOKINGS      CLEAR     64  48  55 SE13      30.01R
SISSETON         N/A     63  52  67 S12       29.93S
$$

SDZ017-020-022-023-036>040-048>070-020600-
SOUTHEAST SOUTH DAKOTA

CITY           SKY/WX    TMP DP  RH WIND       PRES   REMARKS
SIOUX FALLS    CLOUDY    66  50  56 S14       30.01S
HURON          MOCLDY    67  52  58 S16G24    29.91S
CHAMBERLAIN    CLOUDY    67  59  74 S13       29.90F
MITCHELL       CLOUDY    67  53  61 S17       29.95R
YANKTON        CLEAR     66  50  55 S16       29.98F
$$

ABBREVIATIONS USED IN REMARKS
   TC - TEMPERATURE IN CELSIUS
  WCI - WIND CHILL INDEX
   HX - HEAT INDEX
  VSB - VISIBILITY



USA.gov is the U.S. government's official web portal to all federal, state and local government web resources and services.